Amateur Radio Satellites - All Passes

Search period start: 24 May 2013 03:53
Search period end: 25 May 2013 03:53
Location: Lake Zurich, 42.1970°N, 88.0930°W

Satellite Date Start Highest point End Downlink Frequencies (MHz)
Time Altitude Azimuth
Gurwin Techsat 1B 24 May 03:54:28 03:59:16 34° 96° (E) 04:04:03 435.225 FM
Uosat F 24 May 03:57:05 04:01:51 41° 99° (E) 04:06:35 435.120 FM
AO-Echo 24 May 04:03:01 04:07:46 71° 286° (WNW) 04:12:36 ?
Uribyol 2 24 May 04:10:14 04:14:24 25° 296° (WNW) 04:18:32 436.500 FM
Oscar 19 24 May 04:11:02 04:14:48 21° 297° (WNW) 04:18:33 437.125 CW, 437.150 USB
ISS 24 May 04:43:25 04:45:56 19° 347° (NNW) 04:48:27 145.800 FM
Saudisat 1A 24 May 04:46:47 04:50:28 25° 113° (ESE) 04:54:12 436.775 MHz
AO-7 24 May 05:02:50 05:10:15 34° 97° (E) 05:17:36 29.400 - 29.500 MHz
TMSAT-1 24 May 05:11:19 05:16:38 73° 286° (WNW) 05:21:55 436.925 FM
KITSAT 1 24 May 05:13:11 05:18:05 17° 23° (NNE) 05:22:58 435.175 FM
Gurwin Techsat 1B 24 May 05:34:31 05:39:11 32° 293° (WNW) 05:43:50 435.225 FM
Uosat F 24 May 05:36:24 05:40:25 25° 295° (WNW) 05:44:25 435.120 FM
PCSat 24 May 06:04:07 06:07:27 17° 104° (ESE) 06:10:47 145.825 MHz
STRAND 1 24 May 06:12:24 06:17:26 68° 73° (ENE) 06:22:31 ?
ISS 24 May 06:21:14 06:23:33 17° 8° (N) 06:25:53 145.800 FM
Saudisat 1A 24 May 06:25:38 06:29:58 41° 310° (NW) 06:34:21 436.775 MHz
Sapphire 24 May 06:35:34 06:40:13 30° 109° (ESE) 06:44:54 437.095 MHz 1200 baud AX-25 AFSK
Oscar 10/S400 24 May 06:44:39 09:40:26 47° 251° (WSW) 16:52:52 145.825 - 145.975 CW/USB, Beacon 145.810 USB
TMSAT-1 24 May 06:54:42 06:55:37 10° 304° (NW) 06:56:33 436.925 FM
AO-7 24 May 06:55:14 07:03:20 57° 295° (WNW) 07:11:26 29.400 - 29.500 MHz
KITSAT 1 24 May 07:08:00 07:15:49 47° 49° (NE) 07:23:35 435.175 FM
JAS-1B 24 May 07:32:30 07:36:29 18° 90° (E) 07:40:19 435.800 - 435.900 CW/SSB
SO-67 24 May 07:33:25 07:34:31 11° 90° (E) 07:35:37 435.3500 MHz FM
PCSat 24 May 07:44:53 07:50:16 69° 302° (WNW) 07:55:42 145.825 MHz
Hamsat 24 May 07:46:58 07:51:17 59° 100° (E) 07:55:37 145.90 MHz
STRAND 1 24 May 07:54:26 07:57:08 14° 270° (W) 07:59:51 ?
ISS 24 May 07:57:43 08:00:56 41° 27° (NNE) 08:04:08 145.800 FM
SO-50 24 May 08:12:43 08:17:19 47° 118° (ESE) 08:21:51 436.795 FM
Sapphire 24 May 08:18:25 08:23:29 41° 307° (NW) 08:28:37 437.095 MHz 1200 baud AX-25 AFSK
AO-7 24 May 08:50:37 08:54:21 14° 317° (NW) 08:58:05 29.400 - 29.500 MHz
KITSAT 1 24 May 09:03:37 09:11:11 44° 249° (WSW) 09:18:42 435.175 FM
SO-67 24 May 09:04:47 09:08:14 44° 286° (WNW) 09:11:39 435.3500 MHz FM
HO-68 24 May 09:09:12 09:14:16 20° 91° (E) 09:19:19 435.675 MHz FM
JAS-1B 24 May 09:21:53 09:27:47 57° 290° (WNW) 09:33:18 435.800 - 435.900 CW/SSB
Hamsat 24 May 09:24:35 09:26:53 14° 297° (WNW) 09:29:12 145.90 MHz
PCSat 24 May 09:31:54 09:34:44 14° 323° (NW) 09:37:34 145.825 MHz
ISS 24 May 09:34:38 09:37:32 27° 224° (SW) 09:40:26 145.800 FM
Oscar 11 24 May 09:49:57 09:53:04 19° 93° (E) 09:56:10 145.825 FM, Beacon 2401.500 USB
SO-50 24 May 09:54:10 09:58:09 26° 316° (NW) 10:02:05 436.795 FM
JAS-2 24 May 10:14:27 10:21:01 47° 97° (E) 10:26:47 435.800 - 435.900 CW/SSB, 435.910 FM
MaSat-1 24 May 10:34:16 10:37:05 24° 53° (NE) 10:39:28 437.345 MHz
HO-68 24 May 10:55:28 11:02:38 76° 289° (WNW) 11:09:46 435.675 MHz FM
UOSAT-12 24 May 11:04:30 11:08:52 51° 118° (ESE) 11:13:16 437.025 FM, 437.400 FM
OPAL 24 May 11:06:26 11:11:16 47° 102° (ESE) 11:16:01 ?
Oscar 11 24 May 11:25:22 11:29:27 40° 289° (WNW) 11:33:32 145.825 FM, Beacon 2401.500 USB
JAS-2 24 May 11:59:52 12:05:45 31° 298° (WNW) 12:11:03 435.800 - 435.900 CW/SSB, 435.910 FM
Oscar 19 24 May 12:13:27 12:14:49 11° 57° (ENE) 12:16:11 437.125 CW, 437.150 USB
MaSat-1 24 May 12:17:24 12:18:40 12° 259° (WSW) 12:19:52 437.345 MHz
HO-68 24 May 12:45:11 12:49:10 16° 309° (NW) 12:53:09 435.675 MHz FM
UOSAT-12 24 May 12:45:44 12:49:19 22° 317° (NW) 12:52:55 437.025 FM, 437.400 FM
OPAL 24 May 12:46:03 12:49:50 22° 299° (WNW) 12:53:35 ?
Oscar 16 24 May 12:49:39 12:53:58 28° 65° (ENE) 12:58:19 437.025 USB, Beacon 2401.1428
AO-27 24 May 13:02:52 13:07:09 27° 65° (ENE) 13:11:27 436.795 MHz FM
ITAMSAT 1 24 May 13:08:53 13:13:18 30° 66° (ENE) 13:17:45 435.822 SSB
PANSAT 24 May 13:11:04 13:11:49 10° 184° (S) 13:12:34 not established
Saudisat 1A 24 May 13:13:09 13:17:01 26° 45° (NE) 13:20:49 436.775 MHz
AO-Echo 24 May 13:39:55 13:43:09 18° 64° (ENE) 13:46:21 ?
Oscar 19 24 May 13:48:06 13:53:18 79° 75° (ENE) 13:58:31 437.125 CW, 437.150 USB
Uribyol 2 24 May 13:48:36 13:53:44 70° 73° (ENE) 13:58:56 436.500 FM
AO-7 24 May 14:16:53 14:19:17 12° 41° (NE) 14:21:41 29.400 - 29.500 MHz
Oscar 16 24 May 14:28:20 14:33:10 39° 262° (W) 14:38:02 437.025 USB, Beacon 2401.1428
AO-27 24 May 14:41:40 14:46:29 39° 262° (W) 14:51:21 436.795 MHz FM
ITAMSAT 1 24 May 14:48:00 14:52:42 35° 263° (W) 14:57:27 435.822 SSB
PCSat 24 May 14:49:57 14:53:50 19° 42° (NE) 14:57:41 145.825 MHz
Saudisat 1A 24 May 14:52:35 14:56:51 41° 243° (WSW) 15:01:02 436.775 MHz
TMSAT-1 24 May 14:54:15 14:58:26 24° 64° (ENE) 15:02:38 436.925 FM
Uosat F 24 May 15:10:55 15:15:49 61° 72° (ENE) 15:20:46 435.120 FM
Gurwin Techsat 1B 24 May 15:16:01 15:21:10 55° 72° (ENE) 15:26:22 435.225 FM
AO-Echo 24 May 15:16:53 15:21:36 51° 260° (W) 15:26:14 ?
RS-15 24 May 15:19:49 15:30:32 40° 107° (ESE) 15:40:51 29.354 - 29.394 USB, Beacon 29.352 USB
Sapphire 24 May 15:22:33 15:27:19 30° 49° (NE) 15:32:03 437.095 MHz 1200 baud AX-25 AFSK
Oscar 19 24 May 15:31:00 15:33:14 13° 271° (W) 15:35:29 437.125 CW, 437.150 USB
Uribyol 2 24 May 15:31:00 15:33:45 14° 270° (W) 15:36:30 436.500 FM
AO-7 24 May 16:02:14 16:10:03 48° 63° (ENE) 16:17:55 29.400 - 29.500 MHz
PCSat 24 May 16:32:27 16:37:54 79° 242° (WSW) 16:43:19 145.825 MHz
TMSAT-1 24 May 16:33:02 16:38:05 45° 261° (W) 16:43:11 436.925 FM
SO-50 24 May 16:44:27 16:48:53 48° 51° (NE) 16:53:13 436.795 FM
Uosat F 24 May 16:52:03 16:55:02 16° 269° (W) 16:58:03 435.120 FM
Gurwin Techsat 1B 24 May 16:57:46 17:01:30 19° 268° (W) 17:05:14 435.225 FM
Sapphire 24 May 17:05:46 17:10:54 44° 248° (WSW) 17:16:00 437.095 MHz 1200 baud AX-25 AFSK
RS-15 24 May 17:30:28 17:42:24 66° 309° (NW) 17:53:51 29.354 - 29.394 USB, Beacon 29.352 USB
AO-7 24 May 17:55:18 18:02:55 40° 261° (W) 18:10:38 29.400 - 29.500 MHz
UOSAT-12 24 May 17:56:03 17:56:55 10° 31° (NNE) 17:57:48 437.025 FM, 437.400 FM
JAS-1B 24 May 18:16:15 18:23:13 28° 62° (ENE) 18:29:22 435.800 - 435.900 CW/SSB
STRAND 1 24 May 18:23:22 18:27:21 22° 94° (E) 18:31:19 ?
SO-50 24 May 18:25:53 18:29:09 20° 249° (WSW) 18:32:22 436.795 FM
Hamsat 24 May 18:41:38 18:45:38 44° 72° (ENE) 18:49:41 145.90 MHz
UOSAT-12 24 May 19:33:40 19:38:10 51° 52° (NE) 19:42:39 437.025 FM, 437.400 FM
HO-68 24 May 19:39:48 19:44:20 18° 53° (NE) 19:48:52 435.675 MHz FM
SO-67 24 May 19:40:45 19:44:17 67° 76° (ENE) 19:47:51 435.3500 MHz FM
RS-15 24 May 19:48:01 19:57:33 27° 338° (NNW) 20:06:48 29.354 - 29.394 USB, Beacon 29.352 USB
STRAND 1 24 May 20:01:51 20:06:45 45° 290° (WNW) 20:11:38 ?
JAS-1B 24 May 20:04:07 20:13:18 73° 257° (WSW) 20:21:05 435.800 - 435.900 CW/SSB
Hamsat 24 May 20:19:21 20:21:57 16° 269° (W) 20:24:34 145.90 MHz
JAS-2 24 May 20:25:53 20:32:15 29° 61° (ENE) 20:38:34 435.800 - 435.900 CW/SSB, 435.910 FM
OPAL 24 May 20:46:24 20:48:46 13° 56° (NE) 20:51:07 ?
Oscar 11 24 May 20:46:28 20:49:16 17° 64° (ENE) 20:52:05 145.825 FM, Beacon 2401.500 USB
UOSAT-12 24 May 21:14:44 21:17:58 19° 249° (WSW) 21:21:12 437.025 FM, 437.400 FM
HO-68 24 May 21:23:54 21:31:02 86° 72° (ENE) 21:38:13 435.675 MHz FM
KITSAT 1 24 May 21:38:12 21:44:40 28° 105° (ESE) 21:51:09 435.175 FM
JAS-1B 24 May 22:00:26 22:04:39 14° 272° (W) 22:08:38 435.800 - 435.900 CW/SSB
RS-15 24 May 22:06:21 22:15:09 24° 14° (NNE) 22:23:41 29.354 - 29.394 USB, Beacon 29.352 USB
JAS-2 24 May 22:08:53 22:16:37 70° 258° (WSW) 22:24:26 435.800 - 435.900 CW/SSB, 435.910 FM
Oscar 11 24 May 22:20:59 22:25:08 46° 261° (W) 22:29:20 145.825 FM, Beacon 2401.500 USB
OPAL 24 May 22:21:43 22:26:56 90° 251° (WSW) 22:32:06 ?
HO-68 24 May 23:15:13 23:19:34 17° 270° (W) 23:23:56 435.675 MHz FM
KITSAT 1 24 May 23:31:22 23:39:23 69° 305° (NW) 23:47:30 435.175 FM
JAS-2 24 May 23:59:34 00:02:50 13° 276° (W) 00:06:07 435.800 - 435.900 CW/SSB, 435.910 FM
OPAL 25 May 00:05:17 00:06:28 11° 270° (W) 00:07:39 ?
RS-15 25 May 00:19:59 00:30:55 54° 46° (NE) 00:41:29 29.354 - 29.394 USB, Beacon 29.352 USB
MaSat-1 25 May 01:04:09 01:10:51 48° 111° (ESE) 01:16:24 437.345 MHz
KITSAT 1 25 May 01:30:31 01:36:25 21° 329° (NNW) 01:42:22 435.175 FM
Oscar 19 25 May 01:59:57 02:04:17 27° 95° (E) 02:08:35 437.125 CW, 437.150 USB
Uribyol 2 25 May 02:01:36 02:05:50 24° 94° (E) 02:10:02 436.500 FM
ISS 25 May 02:16:36 02:19:54 74° 144° (SE) 02:23:13 145.800 FM
RS-15 25 May 02:32:49 02:43:08 48° 250° (WSW) 02:53:18 29.354 - 29.394 USB, Beacon 29.352 USB
Oscar 16 25 May 02:39:12 02:44:24 74° 103° (ESE) 02:49:32 437.025 USB, Beacon 2401.1428
MaSat-1 25 May 02:47:06 02:53:04 33° 303° (WNW) 02:58:02 437.345 MHz
AO-27 25 May 02:53:46 02:59:01 73° 103° (ESE) 03:04:14 436.795 MHz FM
ITAMSAT 1 25 May 02:59:48 03:05:04 80° 104° (ESE) 03:10:18 435.822 SSB
Uosat F 25 May 03:19:18 03:22:43 18° 92° (E) 03:26:07 435.120 FM
AO-Echo 25 May 03:23:19 03:27:56 47° 99° (E) 03:32:37 ?
Gurwin Techsat 1B 25 May 03:32:33 03:36:33 21° 93° (E) 03:40:32 435.225 FM
KITSAT 1 25 May 03:32:48 03:35:41 12° 359° (N) 03:38:34 435.175 FM
Oscar 19 25 May 03:38:58 03:43:43 38° 292° (WNW) 03:48:26 437.125 CW, 437.150 USB
Uribyol 2 25 May 03:40:33 03:45:28 43° 291° (WNW) 03:50:23 436.500 FM

Developed and maintained by Chris Peat, Heavens-Above GmbH. Please read the updated FAQ before sending e-mail. Imprint. DLR
